DW2150 Weather Reports


time (UTC)temp
C
wind
direction
speed
KPH
gust
KPH
rain 1hr
cm
rain 24hr
cm
rain mn
cm
humidity
%
barometer
mb
20260508190310 21 50 3.2 12.9 0.00 0.00 0.00 95 1011.2
20260508185807 21 39 3.2 12.9 0.00 0.00 0.00 95 1011.2
20260508185306 21 17 3.2 9.7 0.00 0.00 0.00 95 1011.2
20260508184801 21 45 4.8 9.7 0.00 0.00 0.00 95 1011.2
20260508184258 20 47 3.2 9.7 0.00 0.00 0.00 94 1011.2
20260508183755 20 62 1.6 8.0 0.00 0.00 0.00 94 1011.9
20260508183252 20 74 1.6 12.9 0.00 0.00 0.00 94 1011.9
20260508182749 20 53 3.2 14.5 0.00 0.00 0.00 94 1011.9
20260508182245 20 31 3.2 14.5 0.00 0.00 0.00 94 1011.9
20260508181742 20 37 3.2 16.1 0.00 0.00 0.00 94 1011.9
20260508181208 20 57 4.8 16.1 0.00 0.00 0.00 94 1011.9
20260508180633 20 30 3.2 8.0 0.00 0.00 0.00 94 1011.9
20260508180059 20 0 3.2 11.3 0.00 0.00 0.00 94 1011.9
20260508175538 20 80 0.0 11.3 0.00 0.00 0.00 94 1012.2
20260508175034 20 51 4.8 11.3 0.00 0.00 0.00 94 1012.2
20260508174531 20 34 3.2 11.3 0.00 0.00 0.00 94 1012.2
20260508174028 20 41 3.2 12.9 0.00 0.00 0.00 94 1012.2
20260508173525 20 61 4.8 12.9 0.00 0.00 0.00 94 1012.2
20260508173022 20 55 4.8 11.3 0.00 0.00 0.00 94 1011.9
20260508172519 20 70 3.2 9.7 0.00 0.00 0.00 94 1011.9
20260508172011 20 29 3.2 8.0 0.00 0.00 0.00 94 1012.2
20260508171508 20 15 1.6 9.7 0.00 0.00 0.00 94 1012.2
20260508170935 20 20 1.6 9.7 0.00 0.00 0.00 94 1012.5
20260508170432 20 73 3.2 9.7 0.00 0.00 0.00 93 1012.5
20260508165839 20 36 3.2 9.7 0.00 0.00 0.00 93 1012.9
20260508165336 20 29 3.2 11.3 0.00 0.00 0.00 93 1012.9
20260508164833 20 46 1.6 11.3 0.00 0.00 0.00 93 1012.9
20260508164329 20 42 3.2 11.3 0.00 0.00 0.00 93 1012.9
20260508163754 20 43 3.2 11.3 0.00 0.00 0.00 93 1012.9
20260508163251 20 36 3.2 11.3 0.00 0.00 0.00 93 1012.9
20260508162748 20 36 3.2 11.3 0.00 0.00 0.00 93 1013.2
20260508162245 20 62 4.8 11.3 0.00 0.00 0.00 93 1013.2
20260508161741 20 57 3.2 8.0 0.00 0.00 0.00 93 1013.2
20260508161239 20 85 1.6 12.9 0.00 0.00 0.00 93 1013.5
20260508160735 20 6 3.2 12.9 0.00 0.00 0.00 93 1013.2
20260508160232 20 28 3.2 12.9 0.00 0.00 0.00 93 1013.2
20260508155626 20 62 4.8 12.9 0.00 0.00 0.00 93 1013.5
20260508155123 20 72 4.8 11.3 0.00 0.00 0.00 93 1013.5
20260508154549 20 48 3.2 9.7 0.00 0.00 0.00 93 1013.5
20260508154046 20 63 0.0 8.0 0.00 0.00 0.00 94 1013.5
20260508153543 20 8 4.8 11.3 0.00 0.00 0.00 94 1013.5
20260508153039 20 67 4.8 11.3 0.00 0.00 0.00 93 1013.5
20260508152449 20 9 3.2 12.9 0.00 0.00 0.00 93 1013.5
20260508151946 20 55 4.8 12.9 0.00 0.00 0.00 93 1013.2
20260508151444 20 44 3.2 12.9 0.00 0.00 0.00 94 1013.2
20260508150940 20 25 4.8 12.9 0.00 0.00 0.00 93 1013.2
20260508150438 20 43 4.8 9.7 0.00 0.00 0.00 94 1013.2
20260508145913 20 40 4.8 12.9 0.00 0.00 0.00 94 1013.2
20260508145410 20 44 3.2 12.9 0.00 0.00 0.00 93 1013.5
20260508144907 20 21 3.2 12.9 0.00 0.00 0.00 93 1013.2
20260508144404 20 43 3.2 6.4 0.00 0.00 0.00 93 1013.2
20260508143902 20 54 1.6 4.8 0.00 0.00 0.00 93 1013.5
20260508143359 20 38 3.2 4.8 0.00 0.00 0.00 93 1013.5
20260508142856 20 41 1.6 8.0 0.00 0.00 0.00 93 1013.5
20260508142337 20 49 1.6 8.0 0.00 0.00 0.00 93 1013.9
20260508141835 20 5 1.6 8.0 0.00 0.00 0.00 93 1013.5
20260508141313 20 34 3.2 8.0 0.00 0.00 0.00 93 1013.2
20260508140751 20 49 1.6 6.4 0.00 0.00 0.00 93 1013.2
20260508140229 20 23 1.6 6.4 0.00 0.00 0.00 93 1013.2
20260508135726 20 14 1.6 6.4 0.00 0.00 0.00 93 1013.2
20260508135223 20 72 3.2 6.4 0.00 0.00 0.00 93 1013.2
20260508134720 20 34 0.0 8.0 0.00 0.00 0.00 93 1013.2
20260508134217 20 62 0.0 9.7 0.00 0.00 0.00 93 1013.2
20260508133714 20 30 3.2 9.7 0.00 0.00 0.00 93 1013.2
20260508133211 20 30 1.6 3.2 0.00 0.00 0.00 93 1013.2
20260508132708 20 35 0.0 6.4 0.00 0.00 0.00 93 1013.2
20260508132103 20 35 0.0 8.0 0.00 0.00 0.00 93 1013.5
20260508131528 20 57 0.0 11.3 0.00 0.00 0.00 93 1013.5
20260508130954 20 18 3.2 11.3 0.00 0.00 0.00 93 1013.2
20260508130432 20 27 1.6 11.3 0.00 0.00 0.00 93 1013.2
20260508125930 20 43 4.8 11.3 0.00 0.00 0.00 93 1012.9
20260508125355 20 64 3.2 11.3 0.00 0.00 0.00 93 1013.2
20260508124851 20 31 1.6 9.7 0.00 0.00 0.00 93 1013.2
20260508124348 20 58 3.2 9.7 0.00 0.00 0.00 93 1013.2
20260508123813 20 70 1.6 9.7 0.00 0.00 0.00 93 1013.5
20260508123312 20 78 1.6 6.4 0.00 0.00 0.00 93 1013.2
20260508122807 20 54 0.0 6.4 0.00 0.00 0.00 93 1013.2
20260508122307 20 67 0.0 6.4 0.00 0.00 0.00 93 1013.2
20260508121731 20 91 1.6 8.0 0.00 0.00 0.00 93 1013.2
20260508121226 20 51 1.6 9.7 0.00 0.00 0.00 93 1013.2
20260508120652 20 85 3.2 9.7 0.00 0.00 0.00 93 1012.9
20260508120118 20 67 3.2 9.7 0.00 0.00 0.00 93 1012.9
20260508115614 20 21 3.2 9.7 0.00 0.00 0.00 93 1012.9
20260508115111 20 35 3.2 8.0 0.00 0.00 0.00 93 1012.5
20260508114608 20 43 3.2 8.0 0.00 0.00 0.00 93 1012.9
20260508114105 20 30 3.2 8.0 0.00 0.00 0.00 93 1013.2
20260508113602 20 49 4.8 8.0 0.00 0.00 0.00 93 1012.9
20260508113059 20 41 3.2 8.0 0.00 0.00 0.00 93 1012.9
20260508112556 20 39 3.2 6.4 0.00 0.00 0.00 93 1013.2
20260508112053 20 37 3.2 6.4 0.00 0.00 0.00 93 1013.2
20260508111519 21 39 1.6 8.0 0.00 0.00 0.00 93 1013.2
20260508110944 21 42 1.6 8.0 0.00 0.00 0.00 93 1013.2
20260508110440 21 37 3.2 8.0 0.00 0.00 0.00 93 1013.2
20260508105906 21 6 1.6 6.4 0.00 0.00 0.00 93 1013.2
20260508105403 21 22 3.2 6.4 0.00 0.00 0.00 93 1012.5
20260508104900 20 80 1.6 6.4 0.00 0.00 0.00 93 1012.2
20260508104326 20 39 1.6 8.0 0.00 0.00 0.00 93 1012.2
20260508103824 20 61 1.6 11.3 0.00 0.00 0.00 93 1012.2
20260508103321 20 56 3.2 11.3 0.00 0.00 0.00 93 1012.5
20260508102818 21 50 3.2 12.9 0.00 0.00 0.00 93 1012.5
20260508102314 21 92 1.6 12.9 0.00 0.00 0.00 93 1012.5
20260508101811 21 35 3.2 9.7 0.00 0.00 0.00 93 1012.9
20260508101308 21 59 3.2 9.7 0.00 0.00 0.00 93 1012.9
20260508100805 21 44 3.2 9.7 0.00 0.00 0.00 93 1012.5
20260508100302 21 63 3.2 6.4 0.00 0.00 0.00 93 1012.5
20260508095759 21 53 3.2 9.7 0.00 0.00 0.00 93 1012.9
20260508095255 21 32 1.6 11.3 0.00 0.00 0.00 92 1012.9
20260508094751 22 29 1.6 11.3 0.00 0.00 0.00 92 1012.9
20260508094248 22 28 1.6 8.0 0.00 0.00 0.00 92 1012.9
20260508093643 22 64 3.2 8.0 0.00 0.00 0.00 92 1012.9
20260508093138 22 46 3.2 4.8 0.00 0.00 0.00 92 1012.9
20260508092635 22 50 1.6 4.8 0.00 0.00 0.00 92 1012.9
20260508092131 22 97 1.6 4.8 0.00 0.00 0.00 92 1012.9
20260508091628 22 32 1.6 8.0 0.00 0.00 0.00 92 1012.9
20260508091125 22 46 1.6 8.0 0.00 0.00 0.00 92 1012.9
20260508090521 22 42 0.0 8.0 0.00 0.00 0.00 91 1012.9
20260508085850 22 53 3.2 6.4 0.00 0.00 0.00 91 1012.9
20260508085347 22 44 1.6 4.8 0.00 0.00 0.00 91 1012.5
20260508084844 22 31 1.6 4.8 0.00 0.00 0.00 91 1012.9
20260508084340 22 31 1.6 4.8 0.00 0.00 0.00 91 1012.9
20260508083837 22 31 1.6 4.8 0.00 0.00 0.00 91 1012.9
20260508083334 22 32 1.6 4.8 0.00 0.00 0.00 90 1012.9
20260508082832 22 48 1.6 4.8 0.00 0.00 0.00 91 1012.9
20260508082329 22 66 3.2 4.8 0.00 0.00 0.00 90 1012.9
20260508081826 23 23 0.0 4.8 0.00 0.00 0.00 90 1012.9
20260508081252 23 24 0.0 6.4 0.00 0.00 0.00 90 1013.2
20260508080748 23 24 1.6 6.4 0.00 0.00 0.00 90 1012.9
20260508080226 23 16 1.6 9.7 0.00 0.00 0.00 89 1012.9
20260508075652 23 39 1.6 9.7 0.00 0.00 0.00 89 1012.5
20260508075118 23 52 1.6 9.7 0.00 0.00 0.00 89 1012.5
20260508074514 23 39 1.6 8.0 0.00 0.00 0.00 89 1012.9
20260508074010 23 12 1.6 8.0 0.00 0.00 0.00 89 1012.9
20260508073507 23 30 3.2 8.0 0.00 0.00 0.00 89 1012.9
20260508073004 23 24 4.8 8.0 0.00 0.00 0.00 89 1012.9
20260508072431 23 58 3.2 6.4 0.00 0.00 0.00 89 1013.2
20260508071927 23 24 1.6 6.4 0.00 0.00 0.00 89 1013.2
20260508071424 23 31 0.0 9.7 0.00 0.00 0.00 89 1013.2
20260508070921 23 31 0.0 9.7 0.00 0.00 0.00 89 1013.2
20260508070419 23 46 3.2 9.7 0.00 0.00 0.00 89 1013.2
20260508065916 23 39 1.6 12.9 0.00 0.00 0.00 89 1012.9
20260508065413 23 25 1.6 12.9 0.00 0.00 0.00 89 1013.2
20260508064839 23 39 1.6 12.9 0.00 0.00 0.00 89 1012.9
20260508064304 23 35 3.2 12.9 0.00 0.00 0.00 89 1012.5
20260508063801 23 71 0.0 12.9 0.00 0.00 0.00 89 1012.9
20260508063258 23 47 3.2 6.4 0.00 0.00 0.00 89 1013.2
20260508062755 23 32 1.6 3.2 0.00 0.00 0.00 89 1013.2
20260508062252 23 32 1.6 3.2 0.00 0.00 0.00 89 1013.5
20260508061750 23 32 1.6 4.8 0.00 0.00 0.00 89 1013.5
20260508061246 23 32 1.6 6.4 0.00 0.00 0.00 89 1013.5
20260508060724 23 32 0.0 6.4 0.00 0.00 0.00 88 1013.5
20260508060221 23 32 1.6 6.4 0.00 0.00 0.00 88 1013.5
20260508055718 23 56 3.2 9.7 0.00 0.00 0.00 88 1013.5
20260508055215 23 63 1.6 9.7 0.00 0.00 0.00 88 1013.5
20260508054710 23 58 1.6 11.3 0.00 0.00 0.00 88 1013.2
20260508054207 23 88 3.2 11.3 0.00 0.00 0.00 88 1013.2
20260508053704 23 3 3.2 11.3 0.00 0.00 0.00 88 1012.9
20260508053201 23 64 3.2 11.3 0.00 0.00 0.00 87 1012.9
20260508052658 23 61 3.2 9.7 0.00 0.00 0.00 87 1012.9
20260508052155 23 68 3.2 9.7 0.00 0.00 0.00 87 1012.9
20260508051652 23 16 3.2 8.0 0.00 0.00 0.00 87 1012.9
20260508051148 23 10 1.6 9.7 0.00 0.00 0.00 87 1012.9
20260508050645 23 51 3.2 9.7 0.00 0.00 0.00 87 1012.9
20260508050142 23 54 3.2 9.7 0.00 0.00 0.00 87 1012.9
20260508045639 23 90 3.2 9.7 0.00 0.00 0.00 86 1012.9
20260508045136 23 32 3.2 9.7 0.00 0.00 0.00 86 1012.9
20260508044633 23 16 3.2 9.7 0.00 0.00 0.00 87 1012.9
20260508044130 23 32 3.2 9.7 0.00 0.00 0.00 87 1012.9
20260508043555 23 41 1.6 9.7 0.00 0.00 0.00 87 1013.2
20260508043033 23 50 4.8 9.7 0.00 0.00 0.00 87 1013.2
20260508042459 23 70 3.2 8.0 0.00 0.00 0.00 87 1013.5
20260508041956 23 61 1.6 8.0 0.00 0.00 0.00 86 1013.9
20260508041434 23 46 3.2 8.0 0.00 0.00 0.00 86 1013.9
20260508040808 23 55 3.2 8.0 0.00 0.00 0.00 86 1014.2
20260508040249 23 42 1.6 9.7 0.00 0.00 0.00 86 1014.2
20260508035728 23 83 3.2 11.3 0.00 0.00 0.00 85 1014.6
20260508035223 23 51 3.2 11.3 0.00 0.00 0.00 85 1014.2
20260508034720 23 69 3.2 11.3 0.00 0.00 0.00 85 1014.6
20260508034217 23 37 3.2 11.3 0.00 0.00 0.00 85 1014.6
20260508033643 23 54 3.2 9.7 0.00 0.00 0.00 85 1014.2
20260508033140 23 111 1.6 11.3 0.00 0.00 0.00 86 1014.2
20260508032637 23 35 3.2 11.3 0.00 0.00 0.00 85 1014.2
20260508032134 23 58 4.8 11.3 0.00 0.00 0.00 85 1014.2
20260508031631 23 81 3.2 8.0 0.00 0.00 0.00 85 1014.2
20260508031128 23 29 1.6 8.0 0.00 0.00 0.00 85 1013.9
20260508030625 23 47 1.6 8.0 0.00 0.00 0.00 85 1013.9
20260508030122 23 88 3.2 8.0 0.00 0.00 0.00 84 1013.9
20260508025559 23 50 3.2 8.0 0.00 0.00 0.00 84 1013.9
20260508025053 23 62 3.2 8.0 0.00 0.00 0.00 84 1013.9
20260508024551 23 59 1.6 8.0 0.00 0.00 0.00 83 1013.9
20260508024047 24 66 3.2 8.0 0.00 0.00 0.00 83 1013.9
20260508023545 24 63 3.2 6.4 0.00 0.00 0.00 83 1013.9
20260508023041 24 63 1.6 6.4 0.00 0.00 0.00 83 1013.9
20260508022538 24 85 3.2 9.7 0.00 0.00 0.00 82 1013.9
20260508022004 24 65 3.2 9.7 0.00 0.00 0.00 82 1014.2
20260508021500 24 30 1.6 9.7 0.00 0.00 0.00 82 1013.9
20260508020957 24 30 3.2 11.3 0.00 0.00 0.00 82 1013.9
20260508020453 24 44 3.2 11.3 0.00 0.00 0.00 82 1013.5
20260508015951 24 46 3.2 11.3 0.00 0.00 0.00 82 1013.9
20260508015448 24 34 3.2 11.3 0.00 0.00 0.00 82 1013.9
20260508014945 24 29 3.2 11.3 0.00 0.00 0.00 82 1013.9
20260508014442 24 53 3.2 11.3 0.00 0.00 0.00 82 1013.9
20260508013837 24 46 4.8 11.3 0.00 0.00 0.00 82 1013.9
20260508013334 24 29 4.8 11.3 0.00 0.00 0.00 82 1013.9
20260508012830 24 17 3.2 11.3 0.00 0.00 0.00 82 1013.9
20260508012221 24 24 3.2 11.3 0.00 0.00 0.00 82 1013.5
20260508011718 24 19 4.8 12.9 0.00 0.00 0.00 82 1013.5
20260508011144 25 51 3.2 12.9 0.00 0.00 0.00 82 1013.5
20260508010641 25 44 3.2 12.9 0.00 0.00 0.00 82 1013.5
20260508010138 25 51 6.4 12.9 0.00 0.00 0.00 82 1013.5
20260508005635 25 49 4.8 12.9 0.00 0.00 0.00 82 1013.5
20260508005132 25 46 4.8 12.9 0.00 0.00 0.00 82 1013.5
20260508004628 25 40 3.2 12.9 0.00 0.00 0.00 82 1013.5
20260508004125 25 27 3.2 12.9 0.00 0.00 0.00 82 1013.5
20260508003622 25 34 3.2 12.9 0.00 0.00 0.00 82 1013.5
20260508003119 25 71 4.8 12.9 0.00 0.00 0.00 82 1013.5
20260508002616 25 21 4.8 12.9 0.00 0.00 0.00 82 1013.5
20260508002113 25 14 3.2 11.3 0.00 0.00 0.00 82 1013.5
20260508001610 25 38 4.8 12.9 0.00 0.00 0.00 81 1013.5
20260508001011 25 63 4.8 12.9 0.00 0.00 0.00 81 1013.5
20260508000509 25 66 3.2 11.3 0.00 0.00 0.00 81 1013.5
20260508000005 25 14 4.8 11.3 0.00 0.00 0.00 81 1013.5
20260507235502 25 37 3.2 11.3 0.00 0.00 0.00 81 1013.5
20260507234959 25 64 1.6 11.3 0.00 0.00 0.00 81 1013.2
20260507234425 25 67 4.8 14.5 0.00 0.00 0.00 81 1013.2
20260507233922 25 38 3.2 14.5 0.00 0.00 0.00 81 1013.2
20260507233415 25 54 3.2 14.5 0.00 0.00 0.00 81 1013.5
20260507232911 25 55 6.4 12.9 0.00 0.00 0.00 80 1013.2
20260507232407 25 46 3.2 11.3 0.00 0.00 0.00 81 1013.2
20260507231904 25 78 3.2 11.3 0.00 0.00 0.00 81 1013.2
20260507231401 25 69 3.2 9.7 0.00 0.00 0.00 81 1013.2
20260507230858 26 11 1.6 11.3 0.00 0.00 0.00 81 1013.2
20260507230337 26 32 3.2 9.7 0.00 0.00 0.00 80 1013.5
20260507225834 26 23 3.2 9.7 0.00 0.00 0.00 81 1013.5
20260507225300 26 36 3.2 9.7 0.00 0.00 0.00 81 1013.2
20260507224757 26 22 1.6 11.3 0.00 0.00 0.00 81 1013.5
20260507224254 26 41 3.2 11.3 0.00 0.00 0.00 80 1013.5
20260507223751 26 67 3.2 11.3 0.00 0.00 0.00 80 1013.5
20260507223248 26 66 4.8 11.3 0.00 0.00 0.00 80 1013.2
20260507222745 26 14 3.2 9.7 0.00 0.00 0.00 81 1013.2
20260507222242 26 37 3.2 11.3 0.00 0.00 0.00 81 1013.2
20260507221708 26 37 3.2 11.3 0.00 0.00 0.00 81 1013.2
20260507221205 26 49 3.2 11.3 0.00 0.00 0.00 80 1013.5
20260507220702 26 61 4.8 11.3 0.00 0.00 0.00 79 1013.5
20260507220128 26 71 3.2 11.3 0.00 0.00 0.00 81 1013.5
20260507215625 26 51 3.2 11.3 0.00 0.00 0.00 79 1013.2
20260507215122 26 33 4.8 11.3 0.00 0.00 0.00 79 1013.2
20260507214618 26 350 3.2 9.7 0.00 0.00 0.00 80 1013.2
20260507214115 25 32 1.6 9.7 0.00 0.00 0.00 81 1013.2
20260507213612 25 24 3.2 9.7 0.00 0.00 0.00 81 1013.2
20260507213038 25 87 3.2 9.7 0.00 0.00 0.00 80 1013.5
20260507212535 26 59 4.8 9.7 0.00 0.00 0.00 79 1013.5
20260507212014 26 54 3.2 16.1 0.00 0.00 0.00 79 1013.5
20260507211409 26 45 3.2 16.1 0.00 0.00 0.00 79 1013.5
20260507210848 26 40 4.8 16.1 0.00 0.00 0.00 79 1013.5
20260507210345 26 40 3.2 17.7 0.00 0.00 0.00 79 1013.5
20260507205751 26 52 4.8 17.7 0.00 0.00 0.00 78 1013.9
20260507205146 25 45 6.4 17.7 0.00 0.00 0.00 78 1013.9
20260507204642 25 46 4.8 12.9 0.00 0.00 0.00 78 1014.2
20260507204139 25 39 4.8 12.9 0.00 0.00 0.00 78 1014.2
20260507203636 25 36 4.8 12.9 0.00 0.00 0.00 79 1014.2
20260507203134 25 18 4.8 12.9 0.00 0.00 0.00 79 1014.2
20260507202631 25 51 3.2 12.9 0.00 0.00 0.00 80 1014.2
20260507202127 25 66 4.8 12.9 0.00 0.00 0.00 79 1014.2
20260507201625 25 52 4.8 12.9 0.00 0.00 0.00 80 1014.2
20260507201122 25 46 3.2 12.9 0.00 0.00 0.00 79 1014.6
20260507200600 25 29 3.2 11.3 0.00 0.00 0.00 79 1014.6
20260507200018 25 59 3.2 11.3 0.00 0.00 0.00 79 1014.6
20260507195516 25 31 1.6 11.3 0.00 0.00 0.00 81 1014.6
20260507195012 24 74 3.2 11.3 0.00 0.00 0.00 81 1014.6
20260507194510 24 49 4.8 8.0 0.00 0.00 0.00 80 1014.6
20260507194007 24 299 3.2 8.0 0.00 0.00 0.00 80 1014.6
20260507193504 24 43 4.8 8.0 0.00 0.00 0.00 81 1014.9
20260507192946 24 120 1.6 8.0 0.00 0.00 0.00 81 1014.9
20260507192443 23 299 3.2 8.0 0.00 0.00 0.00 82 1014.9
20260507191940 23 30 3.2 11.3 0.00 0.00 0.00 81 1014.9
20260507191437 23 42 3.2 11.3 0.00 0.00 0.00 82 1014.9
20260507190934 23 278 3.2 11.3 0.00 0.00 0.00 83 1014.9
20260507190431 22 59 4.8 11.3 0.00 0.00 0.00 83 1014.9